Location: Eitze
(52.9840°N, 9.6894°E)
Time: 17:25:14
(UTC+00:00)

COBE Rocket - Pass Details

Date: 19 May 2025
Orbit: 676 x 772 km, 97.1° (Epoch: 16 June)

Event Time Altitude Azimuth Distance (km) Brightness Sun altitude
Rises 21:49:51 0° 13° (NNE) 3,226 8.2 -14.6°
Reaches altitude 10° 21:52:09 10° 14° (NNE) 2,307 7.3 -14.7°
Maximum altitude 21:57:17 83° 103° (ESE) 782 4.0 -15.0°
Enters shadow 22:00:58 19° 191° (S) 1,753 5.4 -15.2°
